Boscobel, WI

9:26 AM CST on December 15, 2017 (GMT -0600)
Boscobel

Weather History for KOVS - February, 2014

Change the Weather History Date:

Saturday, February 15, 2014

  Actual Average (KPDC) Record (KPDC)
Temperature  
Mean Temperature 5 °F -  
Max Temperature 19 °F 34 °F 58 °F (1984)
Min Temperature -9 °F 15 °F -15 °F (1951)
Degree Days  
Heating Degree Days 60    
Moisture  
Dew Point 5 °F    
Average Humidity 75    
Maximum Humidity 84    
Minimum Humidity 52    
Precipitation  
Precipitation 0.06 in - - ()
Sea Level Pressure  
Sea Level Pressure 30.00 in    
Wind  
Wind Speed 3 mph (South)    
Max Wind Speed 10 mph    
Max Gust Speed -    
Visibility 5 miles    
Events Snow    
Averages and records for this station are not official NWS values.
T = Trace of Precipitation, MM = Missing Value Source: NWS Daily Summary

Daily Weather History Graph

Daily Weather History Graph

Search for Another Location

Airport or City:

Trip Planner

Search our weather history database for the weather conditions in past years. The results will help you decide how hot, cold, wet, or windy it might be!

Date:

Astronomy

Feb. 15, 2014 Rise Set
Actual Time 7:00 AM CST 5:33 PM CST
Civil Twilight 6:31 AM CST 6:03 PM CST
Nautical Twilight 5:57 AM CST 6:36 PM CST
Astronomical Twilight 5:24 AM CST 7:09 PM CST
Moon 6:36 PM CST 6:57 AM CST
Length of Visible Light 11h 31m
Length of Day
10h 33m
Waxing Gibbous, 99% of the Moon is Illuminated
Feb 15
Waxing Gibbous
Feb 22
Last Quarter
Mar 1
New
Mar 8
First Quarter
Mar 16
Full

Hourly Weather History & Observations

Time (CST) Temp. Windchill Dew Point Humidity Pressure Visibility Wind Dir Wind Speed Gust Speed Precip Events Conditions
12:53 AM -2.0 °F -10.1 °F -7.1 °F 79% 30.11 in 8.0 mi West 3.5 mph - N/A   Clear
1:53 AM -4.0 °F -12.4 °F -8.0 °F 83% 30.11 in 7.0 mi WSW 3.5 mph - N/A   Clear
2:53 AM -5.1 °F -13.6 °F -9.9 °F 80% 30.11 in 7.0 mi South 3.5 mph - N/A   Clear
3:53 AM -7.1 °F - -13.0 °F 75% 30.10 in 7.0 mi Calm Calm - N/A   Clear
4:53 AM -8.0 °F - -14.1 °F 75% 30.10 in 5.0 mi Calm Calm - N/A   Haze
5:53 AM -9.9 °F - -16.1 °F 74% 30.10 in 8.0 mi Calm Calm - N/A   Clear
6:53 AM -9.0 °F - -14.1 °F 79% 30.11 in 8.0 mi Calm Calm - N/A   Clear
7:53 AM -7.1 °F - -11.9 °F 79% 30.11 in 6.0 mi Calm Calm - N/A   Haze
8:53 AM -0.0 °F - -6.0 °F 76% 30.11 in 8.0 mi Calm Calm - N/A   Clear
9:53 AM 6.1 °F - -2.0 °F 69% 30.10 in 10.0 mi Calm Calm - N/A   Clear
10:53 AM 17.1 °F 10.0 °F 1.9 °F 52% 30.09 in 10.0 mi Variable 4.6 mph - N/A   Clear
11:53 AM 18.0 °F 6.9 °F 3.0 °F 52% 30.07 in 10.0 mi SSW 9.2 mph - N/A   Scattered Clouds
12:53 PM 18.0 °F 8.7 °F 3.0 °F 52% 30.01 in 10.0 mi South 6.9 mph - N/A   Overcast
1:53 PM 19.0 °F 10.0 °F 3.9 °F 52% 30.00 in 10.0 mi South 6.9 mph - N/A   Mostly Cloudy
2:53 PM 19.0 °F 7.5 °F 7.0 °F 59% 30.00 in 2.5 mi South 10.4 mph - 0.00 in Snow Light Snow
2:56 PM 19.0 °F 7.5 °F 8.1 °F 62% 29.95 in 1.8 mi SSW 10.4 mph - 0.00 in Snow Light Snow
3:23 PM 18.0 °F 8.7 °F 10.0 °F 71% 29.95 in 0.8 mi SSW 6.9 mph - 0.00 in Snow Light Snow
3:39 PM 17.1 °F 10.0 °F 10.9 °F 77% 29.95 in 0.5 mi South 4.6 mph - 0.00 in Snow Snow
3:53 PM 17.1 °F - 12.0 °F 81% 29.99 in 0.2 mi Calm Calm - 0.02 in Snow Heavy Snow
4:35 PM 17.1 °F - 12.0 °F 81% 29.92 in 0.5 mi Calm Calm - 0.03 in Snow Snow
4:53 PM 17.1 °F 11.7 °F 12.0 °F 81% 29.96 in 0.5 mi Variable 3.5 mph - 0.03 in Snow Snow
5:06 PM 17.1 °F - 12.0 °F 81% 29.90 in 1.2 mi Calm Calm - 0.00 in Snow Light Snow
5:15 PM 18.0 °F - 12.0 °F 78% 29.90 in 1.5 mi Calm Calm - 0.00 in Snow Light Snow
5:35 PM 18.0 °F - 12.0 °F 78% 29.91 in 1.0 mi Calm Calm - 0.00 in Snow Light Snow
5:39 PM 18.0 °F 12.7 °F 12.0 °F 78% 29.91 in 0.8 mi Variable 3.5 mph - 0.01 in Snow Light Snow
5:49 PM 17.6 °F - 12.2 °F 79% 29.91 in 1.2 mi Calm Calm - 0.01 in Snow Light Snow
5:53 PM 18.0 °F - 12.9 °F 81% 29.97 in 1.8 mi Calm Calm - 0.01 in Snow Light Snow
5:58 PM 18.0 °F - 12.0 °F 78% 29.91 in 2.0 mi Calm Calm - 0.00 in Snow Light Snow
6:07 PM 18.0 °F 12.7 °F 12.0 °F 78% 29.91 in 5.0 mi ENE 3.5 mph - 0.00 in Snow Light Snow
6:20 PM 18.0 °F 9.8 °F 12.0 °F 78% 29.91 in 1.8 mi East 5.8 mph - 0.00 in Snow Light Snow
6:31 PM 17.1 °F - 12.0 °F 81% 29.92 in 3.0 mi Calm Calm - 0.00 in Snow Light Snow
6:53 PM 17.1 °F 11.7 °F 12.0 °F 81% 29.97 in 8.0 mi East 3.5 mph - 0.00 in   Overcast
7:05 PM 17.1 °F - 12.0 °F 81% 29.92 in 1.8 mi Calm Calm - 0.00 in Snow Light Snow
7:23 PM 18.0 °F - 12.0 °F 78% 29.92 in 3.0 mi Calm Calm - 0.00 in Snow Light Snow
7:53 PM 18.0 °F - 12.0 °F 78% 29.99 in 8.0 mi Calm Calm - 0.00 in   Overcast
8:49 PM 17.6 °F - 12.2 °F 79% 29.94 in 7.0 mi Calm Calm - N/A   Overcast
8:53 PM 17.1 °F - 12.0 °F 81% 29.99 in 7.0 mi Calm Calm - N/A   Overcast
9:53 PM 17.1 °F - 12.0 °F 81% 30.00 in 6.0 mi Calm Calm - N/A   Haze
10:53 PM 16.0 °F - 12.0 °F 84% 30.00 in 6.0 mi Calm Calm - N/A   Overcast
11:53 PM 16.0 °F - 12.0 °F 84% 30.02 in 6.0 mi Calm Calm - N/A   Overcast